When you browse on this site, cookies collect data to enhance your experience and personalize the content and advertising you see.
Visit our Privacy Policy to learn more. By continuing to use the site, you agree to this use of cookies and data.
  • en France
  • Liste des pays
  • À 7 jours
  • Température de l'eau
  • Carte satellitaire
  • Carte météo
  • Widgets météo
  • user-avatar
    Se connecter

    Météo par heure à Wafangdian

    Ce jour, 18 Juillet, Jeudi

    Heure Température Précipitation Vent Pression Humidité
    00:00 +23°C° 0 mm 2 m/s 746 mmHg 92%
    01:00 +24°C° 0 mm 2 m/s 745 mmHg 92%
    02:00 +24°C° 0 mm 2 m/s 745 mmHg 91%
    03:00 +23°C° 0 mm 2 m/s 745 mmHg 92%
    04:00 +23°C° 0 mm 2 m/s 745 mmHg 92%
    05:00 +23°C° 0 mm 1 m/s 745 mmHg 93%
    06:00 +24°C° 0 mm 2 m/s 745 mmHg 86%
    07:00 +26°C° 0 mm 2 m/s 745 mmHg 80%
    08:00 +27°C° 0 mm 3 m/s 746 mmHg 72%
    09:00 +28°C° 0 mm 3 m/s 746 mmHg 66%
    10:00 +30°C° 0 mm 3 m/s 746 mmHg 60%
    11:00 +32°C° 0 mm 4 m/s 746 mmHg 54%
    12:00 +32°C° 0 mm 4 m/s 745 mmHg 54%
    13:00 +32°C° 0 mm 4 m/s 745 mmHg 54%
    14:00 +31°C° 0 mm 3 m/s 745 mmHg 53%
    15:00 +32°C° 0 mm 4 m/s 745 mmHg 55%
    16:00 +30°C° 0 mm 4 m/s 745 mmHg 58%
    17:00 +29°C° 0 mm 5 m/s 744 mmHg 61%
    18:00 +28°C° 0 mm 4 m/s 744 mmHg 70%
    19:00 +26°C° 0 mm 3 m/s 744 mmHg 80%
    20:00 +24°C° 0 mm 2 m/s 744 mmHg 89%
    21:00 +23°C° 0 mm 2 m/s 744 mmHg 91%
    22:00 +23°C° 0 mm 2 m/s 745 mmHg 93%
    23:00 +21°C° 0 mm 2 m/s 745 mmHg 95%

    Demain, 19 Juillet, Vendredi

    Heure Température Précipitation Vent Pression Humidité
    00:00 +21°C° 0 mm 2 m/s 745 mmHg 95%
    01:00 +22°C° 0 mm 1 m/s 744 mmHg 96%
    02:00 +22°C° 0 mm 1 m/s 744 mmHg 97%
    03:00 +21°C° 0 mm 2 m/s 744 mmHg 97%
    04:00 +21°C° 0 mm 2 m/s 744 mmHg 97%
    05:00 +21°C° 0 mm 2 m/s 744 mmHg 97%
    06:00 +23°C° 0 mm 2 m/s 744 mmHg 89%
    07:00 +25°C° 0 mm 3 m/s 745 mmHg 81%
    08:00 +27°C° 0 mm 4 m/s 745 mmHg 73%
    09:00 +29°C° 0 mm 4 m/s 745 mmHg 66%
    10:00 +30°C° 0 mm 4 m/s 745 mmHg 58%
    11:00 +32°C° 0 mm 5 m/s 745 mmHg 51%
    12:00 +33°C° 0 mm 4 m/s 744 mmHg 50%
    13:00 +33°C° 0 mm 4 m/s 744 mmHg 48%
    14:00 +33°C° 0 mm 4 m/s 743 mmHg 47%
    15:00 +32°C° 0 mm 4 m/s 743 mmHg 50%
    16:00 +32°C° 0 mm 4 m/s 743 mmHg 53%
    17:00 +30°C° 0 mm 4 m/s 743 mmHg 56%
    18:00 +28°C° 0 mm 3 m/s 743 mmHg 65%
    19:00 +26°C° 0 mm 2 m/s 743 mmHg 73%
    20:00 +24°C° 0 mm 2 m/s 743 mmHg 82%
    21:00 +23°C° 0 mm 1 m/s 743 mmHg 84%
    22:00 +23°C° 0 mm 1 m/s 743 mmHg 86%
    23:00 +22°C° 0 mm 1 m/s 743 mmHg 88%

    Après-demain, 20 Juillet, Samedi

    Heure Température Précipitation Vent Pression Humidité
    00:00 +22°C° 0 mm 1 m/s 742 mmHg 88%
    01:00 +22°C° 0 mm 1 m/s 742 mmHg 88%
    02:00 +20°C° 0 mm 0 m/s 742 mmHg 88%
    03:00 +20°C° 0 mm 0 m/s 741 mmHg 87%
    04:00 +20°C° 0 mm 0 m/s 741 mmHg 86%
    05:00 +20°C° 0 mm 0 m/s 741 mmHg 85%
    06:00 +22°C° 0 mm 0 m/s 742 mmHg 78%
    07:00 +24°C° 0 mm 0 m/s 742 mmHg 70%
    08:00 +26°C° 0 mm 0 m/s 742 mmHg 62%
    09:00 +30°C° 0 mm 1 m/s 742 mmHg 58%
    10:00 +32°C° 0 mm 1 m/s 742 mmHg 53%
    11:00 +34°C° 0 mm 2 m/s 742 mmHg 48%
    12:00 +34°C° 0 mm 2 m/s 741 mmHg 48%
    13:00 +34°C° 0 mm 3 m/s 741 mmHg 48%
    14:00 +35°C° 0 mm 3 m/s 741 mmHg 48%
    15:00 +34°C° 0 mm 3 m/s 740 mmHg 51%
    16:00 +33°C° 0 mm 3 m/s 740 mmHg 54%
    17:00 +32°C° 0 mm 2 m/s 740 mmHg 57%
    18:00 +30°C° 0 mm 2 m/s 740 mmHg 64%
    19:00 +28°C° 0 mm 2 m/s 740 mmHg 72%
    20:00 +26°C° 0 mm 1 m/s 740 mmHg 79%
    21:00 +26°C° 0 mm 1 m/s 740 mmHg 80%
    22:00 +26°C° 0 mm 1 m/s 740 mmHg 82%
    23:00 +25°C° 0 mm 1 m/s 740 mmHg 83%

    21 Juillet, Dimanche

    Heure Température Précipitation Vent Pression Humidité
    00:00 +25°C° 0 mm 1 m/s 740 mmHg 84%
    01:00 +25°C° 0 mm 1 m/s 740 mmHg 85%
    02:00 +24°C° 0 mm 1 m/s 740 mmHg 86%
    03:00 +24°C° 0 mm 1 m/s 740 mmHg 87%
    04:00 +24°C° 0 mm 1 m/s 740 mmHg 87%
    05:00 +22°C° 0 mm 0 m/s 740 mmHg 88%
    06:00 +26°C° 0 mm 1 m/s 740 mmHg 78%
    07:00 +28°C° 0 mm 2 m/s 740 mmHg 68%
    08:00 +31°C° 0 mm 3 m/s 740 mmHg 58%
    09:00 +33°C° 0 mm 3 m/s 740 mmHg 54%
    10:00 +35°C° 0 mm 4 m/s 740 mmHg 50%
    11:00 +36°C° 0 mm 5 m/s 740 mmHg 46%
    12:00 +37°C° 0 mm 5 m/s 740 mmHg 45%
    13:00 +37°C° 0 mm 5 m/s 740 mmHg 44%
    14:00 +39°C° 0 mm 5 m/s 740 mmHg 43%
    15:00 +37°C° 0 mm 5 m/s 739 mmHg 45%
    16:00 +36°C° 0 mm 5 m/s 739 mmHg 48%
    17:00 +35°C° 0 mm 5 m/s 739 mmHg 50%
    18:00 +33°C° 0 mm 4 m/s 739 mmHg 56%
    19:00 +30°C° 0 mm 3 m/s 739 mmHg 63%
    20:00 +28°C° 0 mm 3 m/s 739 mmHg 69%
    21:00 +27°C° 0 mm 3 m/s 740 mmHg 71%
    22:00 +27°C° 0 mm 3 m/s 740 mmHg 73%
    23:00 +26°C° 0 mm 3 m/s 740 mmHg 74%

    22 Juillet, Lundi

    Heure Température Précipitation Vent Pression Humidité
    00:00 +26°C° 0 mm 2 m/s 740 mmHg 73%
    01:00 +27°C° 0 mm 2 m/s 740 mmHg 71%
    02:00 +27°C° 0 mm 1 m/s 740 mmHg 69%
    03:00 +27°C° 0 mm 1 m/s 739 mmHg 72%
    04:00 +26°C° 0 mm 1 m/s 739 mmHg 75%
    05:00 +26°C° 0 mm 1 m/s 739 mmHg 78%
    06:00 +28°C° 0 mm 2 m/s 740 mmHg 71%
    07:00 +30°C° 0 mm 3 m/s 740 mmHg 65%
    08:00 +34°C° 0 mm 4 m/s 740 mmHg 58%
    09:00 +35°C° 0 mm 4 m/s 740 mmHg 55%
    10:00 +36°C° 0 mm 5 m/s 740 mmHg 51%
    11:00 +38°C° 0 mm 6 m/s 740 mmHg 47%
    12:00 +39°C° 0 mm 6 m/s 740 mmHg 46%
    13:00 +39°C° 0 mm 5 m/s 740 mmHg 46%
    14:00 +39°C° 0 mm 5 m/s 740 mmHg 45%
    15:00 +37°C° 0 mm 5 m/s 740 mmHg 47%
    16:00 +37°C° 0 mm 5 m/s 739 mmHg 48%
    17:00 +36°C° 0 mm 5 m/s 739 mmHg 50%
    18:00 +34°C° 0 mm 4 m/s 740 mmHg 56%
    19:00 +31°C° 0 mm 3 m/s 740 mmHg 63%
    20:00 +29°C° 0 mm 2 m/s 740 mmHg 70%
    21:00 +29°C° 0.1 mm 2 m/s 740 mmHg 71%
    22:00 +28°C° 0.1 mm 2 m/s 740 mmHg 73%
    23:00 +28°C° 0.1 mm 2 m/s 740 mmHg 75%

    23 Juillet, Mardi

    Heure Température Précipitation Vent Pression Humidité
    00:00 +27°C° 0.2 mm 2 m/s 740 mmHg 78%
    01:00 +27°C° 0.2 mm 2 m/s 740 mmHg 81%
    02:00 +26°C° 0.2 mm 2 m/s 740 mmHg 84%
    03:00 +26°C° 0.7 mm 2 m/s 740 mmHg 88%
    04:00 +25°C° 0.7 mm 2 m/s 740 mmHg 92%
    05:00 +25°C° 0.7 mm 2 m/s 739 mmHg 95%
    06:00 +25°C° 0.4 mm 3 m/s 739 mmHg 94%
    07:00 +25°C° 0.4 mm 3 m/s 739 mmHg 92%
    08:00 +25°C° 0.4 mm 4 m/s 739 mmHg 90%
    09:00 +26°C° 0.6 mm 4 m/s 739 mmHg 89%
    10:00 +26°C° 0.6 mm 4 m/s 739 mmHg 89%
    11:00 +26°C° 0.6 mm 4 m/s 738 mmHg 88%
    12:00 +26°C° 0.3 mm 5 m/s 738 mmHg 89%
    13:00 +26°C° 0.3 mm 5 m/s 738 mmHg 90%
    14:00 +25°C° 0.3 mm 5 m/s 737 mmHg 91%
    15:00 +25°C° 0.1 mm 4 m/s 737 mmHg 90%
    16:00 +26°C° 0.1 mm 3 m/s 737 mmHg 89%
    17:00 +26°C° 0.1 mm 3 m/s 737 mmHg 88%
    18:00 +25°C° 0 mm 2 m/s 737 mmHg 90%
    19:00 +25°C° 0 mm 2 m/s 737 mmHg 91%
    20:00 +25°C° 0 mm 1 m/s 737 mmHg 92%
    21:00 +24°C° 0 mm 1 m/s 737 mmHg 93%
    22:00 +24°C° 0 mm 1 m/s 737 mmHg 94%
    23:00 +24°C° 0 mm 1 m/s 737 mmHg 95%
    Voir plus